Location: Cahoon Acres
(40.8736°N, 111.8994°W)
Time: 12:31:28
(UTC+00:00)

SR - Pass Details

Date: 11 June 2020
Orbit: 583 x 872 km, 66.7° (Epoch: 14 July)

Event Time Altitude Azimuth Distance (km) Brightness Sun altitude
Rises 03:14:50 0° 345° (NNW) 2,873 ? -3.3°
Reaches altitude 10° 03:18:14 10° 13° (NNE) 1,932 ? -3.8°
Maximum altitude 03:20:23 13° 43° (NE) 1,701 ? -4.2°
Drops below altitude 10° 03:22:30 10° 73° (ENE) 1,906 ? -4.5°
Enters shadow 03:25:05 - 97° (E) 2,574 ? -4.9°
Sets 03:25:48 0° 101° (E) 2,803 - -5.0°
